Radiation Dose at Monitoring Post of Fukushima Daini Nuclear Power Station
Date,Time,MP-1(microSv/h),MP-2(microSv/h),MP-3(microSv/h),MP-4(microSv/h),MP-5(microSv/h),MP-6(microSv/h),MP-7(microSv/h),Wind Direction,Wind Velocity(m/s),Rain
2021/07/22,00:00,0.166,0.153,0.246,0.239,0.236,0.131,0.083,north-northwest,2.3,No
2021/07/22,00:10,0.167,0.155,0.246,0.237,0.234,0.130,0.082,northwest,2.0,No
2021/07/22,00:20,0.166,0.154,0.250,0.242,0.236,0.130,0.081,north-northwest,1.3,No
2021/07/22,00:30,0.165,0.153,0.248,0.240,0.237,0.130,0.082,north-northwest,0.8,No
2021/07/22,00:40,0.167,0.154,0.247,0.238,0.236,0.131,0.081,-,CALM,No
2021/07/22,00:50,0.167,0.156,0.249,0.240,0.236,0.130,0.082,-,CALM,No
2021/07/22,01:00,0.166,0.154,0.248,0.242,0.239,0.131,0.082,-,CALM,No
2021/07/22,01:10,0.167,0.155,0.246,0.239,0.237,0.131,0.083,-,CALM,No
2021/07/22,01:20,0.168,0.155,0.250,0.240,0.235,0.131,0.083,-,CALM,No
2021/07/22,01:30,0.167,0.155,0.249,0.243,0.239,0.132,0.084,south-southeast,0.7,No
2021/07/22,01:40,0.167,0.155,0.248,0.240,0.238,0.131,0.084,south,0.6,No
2021/07/22,01:50,0.169,0.156,0.250,0.240,0.236,0.131,0.084,-,CALM,No
2021/07/22,02:00,0.170,0.155,0.250,0.244,0.239,0.132,0.084,-,CALM,No
2021/07/22,02:10,0.167,0.156,0.249,0.240,0.239,0.132,0.083,-,CALM,No
2021/07/22,02:20,0.169,0.157,0.253,0.240,0.237,0.131,0.083,-,CALM,No
2021/07/22,02:30,0.168,0.156,0.249,0.242,0.238,0.131,0.084,-,CALM,No
2021/07/22,02:40,0.168,0.157,0.250,0.239,0.237,0.132,0.083,-,CALM,No
2021/07/22,02:50,0.168,0.155,0.250,0.242,0.236,0.131,0.083,-,CALM,No
2021/07/22,03:00,0.168,0.156,0.248,0.243,0.240,0.132,0.084,-,CALM,No
2021/07/22,03:10,0.168,0.156,0.250,0.240,0.237,0.132,0.083,-,CALM,No
2021/07/22,03:20,0.169,0.155,0.251,0.242,0.236,0.132,0.084,-,CALM,No
2021/07/22,03:30,0.169,0.155,0.248,0.242,0.238,0.133,0.084,-,CALM,No
2021/07/22,03:40,0.167,0.156,0.250,0.239,0.239,0.132,0.083,-,CALM,No
2021/07/22,03:50,0.168,0.155,0.251,0.242,0.237,0.132,0.084,-,CALM,No
2021/07/22,04:00,0.169,0.156,0.247,0.240,0.238,0.132,0.084,-,CALM,No
2021/07/22,04:10,0.168,0.155,0.250,0.239,0.238,0.132,0.083,-,CALM,No
2021/07/22,04:20,0.168,0.156,0.248,0.242,0.235,0.132,0.084,-,CALM,No
2021/07/22,04:30,0.169,0.156,0.249,0.241,0.238,0.131,0.083,-,CALM,No
2021/07/22,04:40,0.167,0.155,0.250,0.240,0.237,0.132,0.084,-,CALM,No
2021/07/22,04:50,0.168,0.156,0.247,0.243,0.235,0.130,0.084,-,CALM,No
2021/07/22,05:00,0.169,0.157,0.249,0.240,0.240,0.131,0.084,-,CALM,No
2021/07/22,05:10,0.168,0.156,0.250,0.240,0.238,0.132,0.083,-,CALM,No
2021/07/22,05:20,0.167,0.155,0.249,0.244,0.234,0.131,0.084,-,CALM,No
2021/07/22,05:30,0.170,0.157,0.248,0.240,0.238,0.132,0.083,north-northwest,0.7,No
2021/07/22,05:40,0.169,0.157,0.251,0.240,0.238,0.132,0.083,north-northwest,1.3,No
2021/07/22,05:50,0.167,0.155,0.248,0.243,0.238,0.131,0.084,northwest,0.8,No
2021/07/22,06:00,0.170,0.157,0.246,0.242,0.235,0.132,0.083,north-northwest,1.3,No
2021/07/22,06:10,0.170,0.157,0.251,0.239,0.238,0.133,0.084,northwest,1.2,No
2021/07/22,06:20,0.168,0.156,0.249,0.241,0.239,0.132,0.084,north-northwest,0.9,No
2021/07/22,06:30,0.168,0.155,0.247,0.241,0.237,0.132,0.083,north-northwest,1.2,No
2021/07/22,06:40,0.171,0.156,0.248,0.240,0.235,0.132,0.084,north-northwest,0.7,No
2021/07/22,06:50,0.169,0.155,0.251,0.240,0.236,0.131,0.084,north,1.0,No
2021/07/22,07:00,0.168,0.155,0.249,0.237,0.240,0.131,0.084,northwest,1.0,No
2021/07/22,07:10,0.167,0.157,0.249,0.240,0.239,0.132,0.085,east-northeast,0.7,No
2021/07/22,07:20,0.168,0.156,0.247,0.243,0.238,0.133,0.084,north-northwest,0.6,No
2021/07/22,07:30,0.168,0.156,0.246,0.243,0.235,0.133,0.084,-,CALM,No
2021/07/22,07:40,0.168,0.155,0.247,0.240,0.236,0.131,0.083,north-northeast,0.6,No
2021/07/22,07:50,0.167,0.154,0.246,0.241,0.235,0.130,0.083,northeast,0.6,No
2021/07/22,08:00,0.167,0.154,0.247,0.239,0.236,0.132,0.084,east-northeast,0.6,No
2021/07/22,08:10,0.166,0.154,0.251,0.238,0.235,0.132,0.083,northeast,0.9,No
2021/07/22,08:20,0.165,0.155,0.251,0.238,0.235,0.132,0.083,-,CALM,No
2021/07/22,08:30,0.167,0.154,0.250,0.239,0.237,0.131,0.082,southeast,0.7,No
2021/07/22,08:40,0.168,0.155,0.248,0.237,0.237,0.130,0.083,east,1.0,No
2021/07/22,08:50,0.169,0.155,0.246,0.238,0.235,0.130,0.083,east,1.3,No
2021/07/22,09:00,0.166,0.155,0.248,0.239,0.236,0.131,0.083,southeast,0.9,No
2021/07/22,09:10,0.168,0.154,0.249,0.239,0.237,0.130,0.082,east-southeast,1.4,No
2021/07/22,09:20,0.168,0.154,0.248,0.238,0.237,0.131,0.083,east-southeast,1.3,No
2021/07/22,09:30,0.166,0.155,0.247,0.239,0.236,0.130,0.083,east-southeast,0.9,No
2021/07/22,09:40,0.166,0.154,0.246,0.240,0.237,0.131,0.082,east-southeast,1.3,No
2021/07/22,09:50,0.165,0.153,0.246,0.239,0.235,0.131,0.082,east-southeast,1.2,No
2021/07/22,10:00,0.166,0.153,0.247,0.240,0.234,0.131,0.082,east-southeast,2.0,No
2021/07/22,10:10,0.167,0.154,0.247,0.239,0.236,0.131,0.082,southeast,0.8,No
2021/07/22,10:20,0.166,0.154,0.246,0.239,0.237,0.130,0.082,southeast,0.7,No
2021/07/22,10:30,0.166,0.154,0.246,0.239,0.235,0.131,0.082,east-southeast,1.5,No
2021/07/22,10:40,0.166,0.155,0.246,0.239,0.236,0.131,0.082,east-southeast,2.1,No
2021/07/22,10:50,0.165,0.155,0.247,0.240,0.235,0.130,0.082,east-southeast,2.4,No
2021/07/22,11:00,0.166,0.155,0.247,0.239,0.236,0.131,0.080,east-southeast,2.1,No
2021/07/22,11:10,0.167,0.154,0.248,0.239,0.236,0.130,0.081,southeast,1.7,No
2021/07/22,11:20,0.166,0.155,0.247,0.239,0.235,0.130,0.081,east-southeast,2.1,No
2021/07/22,11:30,0.167,0.155,0.247,0.240,0.236,0.131,0.082,east-southeast,1.9,No
2021/07/22,11:40,0.166,0.155,0.247,0.240,0.235,0.131,0.082,east-southeast,1.8,No
2021/07/22,11:50,0.166,0.153,0.247,0.239,0.235,0.131,0.081,southeast,1.9,No
2021/07/22,12:00,0.166,0.153,0.246,0.240,0.235,0.131,0.081,east-southeast,2.4,No
2021/07/22,12:10,0.167,0.154,0.246,0.239,0.234,0.130,0.082,east-southeast,2.4,No
2021/07/22,12:20,0.167,0.154,0.246,0.240,0.235,0.131,0.082,east-southeast,2.1,No
2021/07/22,12:30,0.167,0.154,0.246,0.240,0.236,0.130,0.081,east-southeast,2.3,No
2021/07/22,12:40,0.167,0.154,0.246,0.239,0.237,0.130,0.082,southeast,1.4,No
2021/07/22,12:50,0.168,0.154,0.247,0.240,0.237,0.130,0.081,east-southeast,1.2,Yes
2021/07/22,13:00,0.167,0.153,0.247,0.238,0.236,0.130,0.082,east-southeast,1.8,No
2021/07/22,13:10,0.167,0.154,0.247,0.240,0.236,0.130,0.082,east,2.4,No
2021/07/22,13:20,0.167,0.154,0.248,0.241,0.235,0.130,0.082,east-southeast,1.7,No
2021/07/22,13:30,0.168,0.154,0.247,0.240,0.235,0.130,0.082,east,1.9,No
2021/07/22,13:40,0.168,0.155,0.247,0.240,0.235,0.130,0.081,east-southeast,2.2,No
2021/07/22,13:50,0.167,0.154,0.248,0.239,0.235,0.130,0.082,east-southeast,1.9,No
2021/07/22,14:00,0.167,0.154,0.248,0.239,0.236,0.131,0.082,southeast,1.8,No
2021/07/22,14:10,0.167,0.155,0.248,0.239,0.235,0.129,0.081,south-southeast,1.6,No
2021/07/22,14:20,0.167,0.154,0.248,0.240,0.234,0.131,0.082,southeast,2.0,No
2021/07/22,14:30,0.166,0.154,0.246,0.238,0.235,0.130,0.082,southeast,2.0,No
2021/07/22,14:40,0.167,0.153,0.246,0.240,0.234,0.130,0.082,south-southeast,1.6,No
2021/07/22,14:50,0.166,0.154,0.248,0.239,0.235,0.129,0.082,south-southeast,1.5,No
2021/07/22,15:00,0.166,0.154,0.248,0.239,0.236,0.130,0.082,south,1.7,No
2021/07/22,15:10,0.166,0.154,0.246,0.238,0.235,0.129,0.081,southeast,1.6,No
2021/07/22,15:20,0.165,0.153,0.247,0.238,0.235,0.129,0.081,-,CALM,No
2021/07/22,15:30,0.165,0.153,0.246,0.238,0.235,0.129,0.081,-,CALM,No
2021/07/22,15:40,0.166,0.153,0.246,0.238,0.235,0.130,0.081,-,CALM,No
2021/07/22,15:50,0.166,0.153,0.245,0.238,0.233,0.129,0.081,-,CALM,No
2021/07/22,16:00,0.165,0.152,0.246,0.239,0.234,0.130,0.080,-,CALM,No
2021/07/22,16:10,0.166,0.153,0.246,0.238,0.233,0.130,0.081,-,CALM,No
2021/07/22,16:20,0.166,0.153,0.245,0.237,0.232,0.130,0.081,-,CALM,No
2021/07/22,16:30,0.165,0.153,0.247,0.238,0.233,0.130,0.080,-,CALM,No
2021/07/22,16:40,0.165,0.153,0.251,0.237,0.234,0.130,0.081,south,0.6,No
2021/07/22,16:50,0.165,0.154,0.250,0.240,0.233,0.131,0.080,south-southeast,0.9,No
2021/07/22,17:00,0.165,0.154,0.247,0.241,0.233,0.130,0.081,southeast,1.0,No
2021/07/22,17:10,0.166,0.155,0.246,0.241,0.233,0.130,0.082,south-southeast,0.9,No
2021/07/22,17:20,0.168,0.154,0.246,0.240,0.236,0.129,0.081,-,CALM,No
2021/07/22,17:30,0.167,0.155,0.249,0.238,0.237,0.130,0.081,-,CALM,No
2021/07/22,17:40,0.167,0.153,0.250,0.239,0.236,0.129,0.081,-,CALM,No
2021/07/22,17:50,0.165,0.154,0.247,0.242,0.234,0.131,0.081,-,CALM,No
2021/07/22,18:00,0.165,0.155,0.246,0.241,0.234,0.130,0.082,south-southeast,0.9,No
2021/07/22,18:10,0.166,0.153,0.245,0.239,0.235,0.130,0.082,south,0.6,No
2021/07/22,18:20,0.168,0.153,0.250,0.238,0.237,0.130,0.082,south,1.6,No
2021/07/22,18:30,0.165,0.153,0.249,0.241,0.236,0.130,0.080,south,0.9,No
2021/07/22,18:40,0.165,0.154,0.247,0.242,0.234,0.130,0.082,-,CALM,No
2021/07/22,18:50,0.165,0.154,0.245,0.239,0.233,0.130,0.081,-,CALM,No
2021/07/22,19:00,0.168,0.153,0.249,0.238,0.238,0.129,0.081,-,CALM,No
2021/07/22,19:10,0.167,0.152,0.249,0.240,0.235,0.130,0.080,south,1.2,No
2021/07/22,19:20,0.166,0.155,0.247,0.241,0.235,0.131,0.082,south,2.5,No
2021/07/22,19:30,0.166,0.155,0.246,0.238,0.233,0.129,0.082,south,1.1,No
2021/07/22,19:40,0.168,0.152,0.250,0.239,0.238,0.129,0.081,south,1.5,No
2021/07/22,19:50,0.167,0.154,0.249,0.242,0.236,0.130,0.081,south,2.6,No
2021/07/22,20:00,0.165,0.154,0.247,0.241,0.234,0.130,0.082,south,2.9,No
2021/07/22,20:10,0.167,0.154,0.249,0.239,0.234,0.130,0.082,south,3.6,No
2021/07/22,20:20,0.168,0.152,0.249,0.240,0.239,0.129,0.081,south,4.0,No
2021/07/22,20:30,0.168,0.155,0.248,0.242,0.237,0.130,0.081,south,4.5,No
2021/07/22,20:40,0.166,0.154,0.247,0.240,0.233,0.131,0.082,south,4.2,No
2021/07/22,20:50,0.167,0.152,0.248,0.240,0.234,0.130,0.081,south,4.1,No
2021/07/22,21:00,0.168,0.154,0.248,0.239,0.237,0.131,0.081,south,4.3,No
2021/07/22,21:10,0.168,0.155,0.247,0.242,0.235,0.130,0.082,south,3.6,No
2021/07/22,21:20,0.165,0.153,0.248,0.240,0.233,0.129,0.082,south,2.9,No
2021/07/22,21:30,0.168,0.154,0.250,0.239,0.235,0.129,0.081,south-southwest,2.0,No
2021/07/22,21:40,0.168,0.155,0.247,0.242,0.238,0.131,0.081,south,2.8,No
2021/07/22,21:50,0.168,0.154,0.247,0.241,0.236,0.131,0.081,south,2.8,No
2021/07/22,22:00,0.165,0.154,0.250,0.239,0.235,0.130,0.081,south,2.5,No
2021/07/22,22:10,0.167,0.153,0.249,0.239,0.235,0.130,0.081,south,2.7,No
2021/07/22,22:20,0.168,0.155,0.247,0.242,0.237,0.131,0.082,south,1.5,No
2021/07/22,22:30,0.168,0.156,0.248,0.241,0.235,0.130,0.082,south,1.4,No
2021/07/22,22:40,0.165,0.154,0.250,0.238,0.234,0.130,0.082,south-southeast,2.1,No
2021/07/22,22:50,0.168,0.155,0.247,0.241,0.236,0.131,0.081,south,1.4,No
2021/07/22,23:00,0.169,0.154,0.249,0.241,0.238,0.131,0.081,southwest,1.0,No
2021/07/22,23:10,0.168,0.155,0.251,0.240,0.236,0.131,0.083,south,1.3,No
2021/07/22,23:20,0.167,0.156,0.250,0.240,0.235,0.131,0.083,south,0.8,No
2021/07/22,23:30,0.169,0.156,0.248,0.244,0.238,0.131,0.082,south-southwest,0.9,No
2021/07/22,23:40,0.169,0.155,0.250,0.241,0.238,0.131,0.082,south-southwest,1.5,No
2021/07/22,23:50,0.167,0.155,0.250,0.239,0.236,0.130,0.082,south,2.1,No
